| time (UTC) | temp C | wind direction | speed KPH | gust KPH | rain 1hr cm | rain 24hr cm | rain mn cm | humidity % | barometer mb |
| 20260506110039 | 23 | 112 | 0.0 | 0.0 | 0.00 | 0.00 | 0.00 | 95 | 1008.5 |
| 20260506105535 | 23 | 108 | 0.0 | 0.0 | 0.00 | 0.00 | 0.00 | 95 | 1008.3 |
| 20260506105032 | 23 | 115 | 0.0 | 0.0 | 0.00 | 0.00 | 0.00 | 95 | 1008.4 |
| 20260506104530 | 23 | 115 | 0.0 | 0.0 | 0.00 | 0.00 | 0.00 | 95 | 1008.3 |
| 20260506104028 | 23 | 112 | 0.0 | 0.0 | 0.00 | 0.00 | 0.00 | 95 | 1008.2 |
| 20260506103525 | 23 | 103 | 0.0 | 0.0 | 0.00 | 0.00 | 0.00 | 95 | 1007.9 |
| 20260506103021 | 23 | 111 | 0.0 | 0.0 | 0.00 | 0.00 | 0.00 | 95 | 1007.9 |
| 20260506102520 | 23 | 112 | 0.0 | 0.0 | 0.00 | 0.00 | 0.00 | 95 | 1008.0 |
| 20260506102017 | 23 | 117 | 0.0 | 0.0 | 0.00 | 0.00 | 0.00 | 95 | 1008.1 |
| 20260506101513 | 23 | 105 | 0.0 | 0.0 | 0.00 | 0.00 | 0.00 | 95 | 1008.1 |
| 20260506101011 | 23 | 105 | 0.0 | 0.0 | 0.00 | 0.00 | 0.00 | 95 | 1007.9 |
| 20260506100509 | 23 | 113 | 0.0 | 0.0 | 0.00 | 0.00 | 0.00 | 95 | 1007.9 |
| 20260506100007 | 23 | 112 | 0.0 | 0.0 | 0.00 | 0.00 | 0.00 | 95 | 1008.1 |
| 20260506095505 | 23 | 112 | 0.0 | 0.0 | 0.00 | 0.00 | 0.00 | 95 | 1007.9 |
| 20260506095001 | 23 | 112 | 0.0 | 0.0 | 0.00 | 0.00 | 0.00 | 95 | 1008.1 |
| 20260506094459 | 23 | 110 | 0.0 | 0.0 | 0.00 | 0.00 | 0.00 | 95 | 1008.1 |
| 20260506093956 | 23 | 110 | 0.0 | 0.0 | 0.00 | 0.00 | 0.00 | 95 | 1007.9 |
| 20260506093455 | 23 | 100 | 0.0 | 0.0 | 0.00 | 0.00 | 0.00 | 95 | 1007.9 |
| 20260506092952 | 23 | 109 | 0.0 | 1.6 | 0.00 | 0.00 | 0.00 | 95 | 1007.8 |
| 20260506092450 | 23 | 116 | 0.0 | 0.0 | 0.00 | 0.00 | 0.00 | 95 | 1007.9 |
| 20260506091946 | 23 | 136 | 0.0 | 0.0 | 0.00 | 0.00 | 0.00 | 94 | 1007.7 |
| 20260506091444 | 23 | 111 | 0.0 | 0.0 | 0.00 | 0.00 | 0.00 | 94 | 1007.8 |
| 20260506090941 | 23 | 111 | 0.0 | 0.0 | 0.00 | 0.00 | 0.00 | 94 | 1007.7 |
| 20260506090439 | 23 | 114 | 0.0 | 0.0 | 0.00 | 0.00 | 0.00 | 93 | 1007.7 |
| 20260506085935 | 23 | 108 | 0.0 | 0.0 | 0.00 | 0.00 | 0.00 | 93 | 1007.6 |
| 20260506085432 | 23 | 119 | 0.0 | 0.0 | 0.00 | 0.00 | 0.00 | 93 | 1007.6 |
| 20260506084928 | 23 | 106 | 0.0 | 1.6 | 0.00 | 0.00 | 0.00 | 93 | 1007.8 |
| 20260506084426 | 23 | 115 | 0.0 | 0.0 | 0.00 | 0.00 | 0.00 | 93 | 1007.6 |
| 20260506083921 | 23 | 97 | 0.0 | 0.0 | 0.00 | 0.00 | 0.00 | 93 | 1007.5 |
| 20260506083419 | 23 | 109 | 0.0 | 0.0 | 0.00 | 0.00 | 0.00 | 93 | 1007.6 |
| 20260506082916 | 23 | 119 | 0.0 | 0.0 | 0.00 | 0.00 | 0.00 | 93 | 1007.8 |
| 20260506082414 | 23 | 101 | 1.6 | 1.6 | 0.00 | 0.00 | 0.00 | 94 | 1007.7 |
| 20260506081909 | 23 | 109 | 0.0 | 0.0 | 0.00 | 0.00 | 0.00 | 94 | 1007.8 |
| 20260506081408 | 23 | 111 | 0.0 | 0.0 | 0.00 | 0.00 | 0.00 | 94 | 1007.9 |
| 20260506080905 | 23 | 103 | 0.0 | 0.0 | 0.00 | 0.00 | 0.00 | 94 | 1007.6 |
| 20260506080402 | 23 | 132 | 0.0 | 0.0 | 0.00 | 0.00 | 0.00 | 94 | 1007.7 |
| 20260506073345 | 23 | 116 | 0.0 | 0.0 | 0.00 | 0.00 | 0.00 | 97 | 1008.0 |
| 20260506072842 | 23 | 111 | 0.0 | 0.0 | 0.00 | 0.00 | 0.00 | 97 | 1007.8 |
| 20260506072340 | 23 | 111 | 0.0 | 0.0 | 0.00 | 0.00 | 0.00 | 97 | 1007.7 |
| 20260506071837 | 23 | 103 | 0.0 | 0.0 | 0.00 | 0.00 | 0.00 | 97 | 1007.7 |
| 20260506071335 | 23 | 112 | 0.0 | 0.0 | 0.00 | 0.00 | 0.00 | 97 | 1007.8 |
| 20260506070831 | 22 | 112 | 0.0 | 0.0 | 0.00 | 0.00 | 0.00 | 97 | 1007.9 |
| 20260506070329 | 22 | 112 | 0.0 | 0.0 | 0.00 | 0.00 | 0.00 | 97 | 1007.8 |
| 20260506062306 | 22 | 108 | 0.0 | 0.0 | 0.00 | 0.00 | 0.00 | 96 | 1007.9 |
| 20260506061802 | 22 | 108 | 0.0 | 0.0 | 0.00 | 0.00 | 0.00 | 96 | 1008.0 |
| 20260506061259 | 22 | 108 | 0.0 | 0.0 | 0.00 | 0.00 | 0.00 | 96 | 1007.9 |
| 20260506060757 | 22 | 108 | 0.0 | 0.0 | 0.00 | 0.00 | 0.00 | 96 | 1007.8 |
| 20260506060254 | 22 | 110 | 0.0 | 0.0 | 0.00 | 0.00 | 0.00 | 96 | 1008.0 |
| 20260506051226 | 22 | 112 | 0.0 | 0.0 | 0.00 | 0.00 | 0.00 | 96 | 1007.7 |
| 20260506050724 | 22 | 108 | 0.0 | 0.0 | 0.00 | 0.00 | 0.00 | 96 | 1007.8 |
| 20260506050221 | 22 | 113 | 0.0 | 0.0 | 0.00 | 0.00 | 0.00 | 96 | 1007.7 |
| 20260506044712 | 22 | 113 | 0.0 | 0.0 | 0.00 | 0.03 | 0.03 | 96 | 1007.8 |
| 20260506044209 | 22 | 113 | 0.0 | 0.0 | 0.00 | 0.03 | 0.03 | 95 | 1007.8 |
| 20260506043707 | 22 | 113 | 0.0 | 0.0 | 0.00 | 0.03 | 0.03 | 95 | 1007.9 |
| 20260506043204 | 22 | 113 | 0.0 | 0.0 | 0.00 | 0.03 | 0.03 | 95 | 1007.6 |
| 20260506042703 | 22 | 113 | 0.0 | 0.0 | 0.00 | 0.03 | 0.03 | 95 | 1007.5 |
| 20260506042201 | 22 | 114 | 0.0 | 0.0 | 0.00 | 0.03 | 0.03 | 95 | 1007.5 |
| 20260506041659 | 22 | 114 | 0.0 | 0.0 | 0.00 | 0.03 | 0.03 | 95 | 1007.4 |
| 20260506041156 | 22 | 113 | 0.0 | 0.0 | 0.00 | 0.03 | 0.03 | 95 | 1007.2 |
| 20260506040653 | 22 | 113 | 0.0 | 0.0 | 0.00 | 0.03 | 0.03 | 94 | 1007.0 |
| 20260506040150 | 23 | 114 | 0.0 | 0.0 | 0.00 | 0.03 | 0.03 | 94 | 1007.1 |
| 20260506035647 | 23 | 110 | 0.0 | 0.0 | 0.00 | 0.03 | 0.03 | 94 | 1006.9 |
| 20260506035144 | 23 | 104 | 0.0 | 0.0 | 0.18 | 0.03 | 0.03 | 94 | 1006.7 |
| 20260506034640 | 23 | 104 | 0.0 | 0.0 | 0.18 | 0.03 | 0.03 | 94 | 1006.7 |
| 20260506034137 | 23 | 104 | 0.0 | 0.0 | 0.00 | 0.00 | 0.00 | 93 | 1006.8 |
| 20260506033635 | 23 | 101 | 0.0 | 0.0 | 0.00 | 0.00 | 0.00 | 93 | 1006.6 |
| 20260506033131 | 23 | 109 | 0.0 | 0.0 | 0.00 | 0.00 | 0.00 | 93 | 1006.8 |
| 20260506032629 | 23 | 101 | 0.0 | 0.0 | 0.00 | 0.00 | 0.00 | 93 | 1006.5 |
| 20260506032126 | 23 | 112 | 0.0 | 0.0 | 0.00 | 0.00 | 0.00 | 93 | 1006.4 |
| 20260506031623 | 23 | 110 | 0.0 | 0.0 | 0.00 | 0.00 | 0.00 | 94 | 1006.3 |
| 20260506031119 | 23 | 110 | 0.0 | 0.0 | 0.00 | 0.00 | 0.00 | 94 | 1006.6 |
| 20260506030618 | 23 | 113 | 0.0 | 0.0 | 0.00 | 0.00 | 0.00 | 94 | 1006.6 |
| 20260506030115 | 23 | 106 | 0.0 | 0.0 | 0.00 | 0.00 | 0.00 | 94 | 1006.3 |
| 20260506025612 | 23 | 117 | 0.0 | 0.0 | 0.00 | 0.00 | 0.00 | 94 | 1006.4 |
| 20260506025108 | 23 | 114 | 0.0 | 0.0 | 0.00 | 0.00 | 0.00 | 94 | 1006.2 |
| 20260506024605 | 23 | 114 | 0.0 | 0.0 | 0.00 | 0.00 | 0.00 | 94 | 1006.3 |
| 20260506024101 | 23 | 105 | 0.0 | 0.0 | 0.00 | 0.00 | 0.00 | 94 | 1006.3 |
| 20260506023557 | 23 | 99 | 0.0 | 0.0 | 0.00 | 0.00 | 0.00 | 94 | 1006.4 |
| 20260506023055 | 23 | 99 | 0.0 | 0.0 | 0.00 | 0.00 | 0.00 | 94 | 1006.3 |
| 20260506022552 | 23 | 112 | 0.0 | 0.0 | 0.00 | 0.00 | 0.00 | 94 | 1006.1 |
| 20260506022050 | 23 | 112 | 0.0 | 0.0 | 0.00 | 0.00 | 0.00 | 94 | 1006.3 |
| 20260506021547 | 23 | 112 | 0.0 | 0.0 | 0.00 | 0.00 | 0.00 | 93 | 1006.4 |
| 20260506021044 | 23 | 104 | 0.0 | 0.0 | 0.00 | 0.00 | 0.00 | 93 | 1006.5 |
| 20260506020542 | 24 | 100 | 0.0 | 0.0 | 0.00 | 0.00 | 0.00 | 93 | 1006.1 |
| 20260506020039 | 24 | 100 | 0.0 | 0.0 | 0.00 | 0.00 | 0.00 | 92 | 1006.2 |
| 20260506015536 | 24 | 100 | 0.0 | 0.0 | 0.00 | 0.00 | 0.00 | 92 | 1006.0 |
| 20260506015033 | 24 | 98 | 0.0 | 0.0 | 0.00 | 0.00 | 0.00 | 92 | 1006.0 |
| 20260506014531 | 24 | 97 | 0.0 | 0.0 | 0.00 | 0.00 | 0.00 | 92 | 1005.9 |
| 20260506014026 | 24 | 98 | 0.0 | 0.0 | 0.00 | 0.00 | 0.00 | 92 | 1005.8 |
| 20260506013525 | 24 | 107 | 0.0 | 0.0 | 0.00 | 0.00 | 0.00 | 91 | 1005.5 |
| 20260506013021 | 25 | 107 | 0.0 | 0.0 | 0.00 | 0.00 | 0.00 | 91 | 1005.8 |
| 20260506012517 | 25 | 107 | 0.0 | 0.0 | 0.00 | 0.00 | 0.00 | 91 | 1005.6 |
| 20260506012014 | 25 | 106 | 0.0 | 0.0 | 0.00 | 0.00 | 0.00 | 90 | 1005.8 |
| 20260506011512 | 25 | 110 | 0.0 | 0.0 | 0.00 | 0.00 | 0.00 | 90 | 1005.4 |
| 20260506011008 | 25 | 110 | 0.0 | 0.0 | 0.00 | 0.00 | 0.00 | 89 | 1005.3 |
| 20260506010508 | 25 | 110 | 0.0 | 0.0 | 0.00 | 0.00 | 0.00 | 88 | 1005.5 |
| 20260506010003 | 25 | 108 | 0.0 | 0.0 | 0.00 | 0.00 | 0.00 | 88 | 1005.2 |
| 20260506005501 | 26 | 103 | 0.0 | 0.0 | 0.00 | 0.00 | 0.00 | 87 | 1005.1 |
| 20260506004956 | 26 | 102 | 0.0 | 0.0 | 0.00 | 0.00 | 0.00 | 86 | 1005.1 |
| 20260506004454 | 26 | 102 | 0.0 | 0.0 | 0.00 | 0.00 | 0.00 | 86 | 1005.0 |
| 20260506003950 | 26 | 102 | 0.0 | 0.0 | 0.00 | 0.00 | 0.00 | 85 | 1005.0 |
| 20260506003447 | 26 | 102 | 0.0 | 0.0 | 0.00 | 0.00 | 0.00 | 84 | 1004.8 |
| 20260506002943 | 26 | 102 | 0.0 | 0.0 | 0.00 | 0.00 | 0.00 | 83 | 1005.0 |
| 20260506002439 | 26 | 107 | 0.0 | 0.0 | 0.00 | 0.00 | 0.00 | 83 | 1004.8 |
| 20260506001934 | 26 | 107 | 0.0 | 0.0 | 0.00 | 0.00 | 0.00 | 83 | 1004.8 |
| 20260506001432 | 26 | 105 | 0.0 | 0.0 | 0.00 | 0.00 | 0.00 | 82 | 1004.8 |
| 20260506000929 | 26 | 105 | 0.0 | 0.0 | 0.00 | 0.00 | 0.00 | 82 | 1004.8 |
| 20260506000427 | 26 | 114 | 0.0 | 0.0 | 0.00 | 0.00 | 0.00 | 81 | 1004.9 |
| 20260505235923 | 27 | 106 | 0.0 | 0.0 | 0.00 | 0.00 | 0.00 | 82 | 1005.0 |
| 20260505235422 | 27 | 95 | 0.0 | 0.0 | 0.00 | 0.00 | 0.00 | 81 | 1004.8 |
| 20260505234918 | 27 | 120 | 0.0 | 0.0 | 0.00 | 0.00 | 0.00 | 81 | 1004.9 |
| 20260505234416 | 27 | 99 | 0.0 | 0.0 | 0.00 | 0.00 | 0.00 | 80 | 1004.9 |
| 20260505233912 | 27 | 99 | 0.0 | 0.0 | 0.00 | 0.00 | 0.00 | 79 | 1004.6 |
| 20260505233410 | 27 | 101 | 0.0 | 0.0 | 0.00 | 0.00 | 0.00 | 79 | 1004.7 |
| 20260505232907 | 27 | 91 | 0.0 | 0.0 | 0.00 | 0.00 | 0.00 | 78 | 1004.7 |
| 20260505232405 | 27 | 109 | 0.0 | 0.0 | 0.00 | 0.00 | 0.00 | 78 | 1004.5 |
| 20260505231901 | 27 | 119 | 0.0 | 0.0 | 0.00 | 0.00 | 0.00 | 76 | 1004.4 |
| 20260505231359 | 27 | 109 | 0.0 | 0.0 | 0.00 | 0.00 | 0.00 | 76 | 1004.4 |
| 20260505230857 | 27 | 90 | 1.6 | 1.6 | 0.00 | 0.00 | 0.00 | 75 | 1004.5 |
| 20260505230354 | 27 | 126 | 0.0 | 1.6 | 0.00 | 0.00 | 0.00 | 73 | 1004.5 |
| 20260505225850 | 28 | 122 | 0.0 | 0.0 | 0.00 | 0.00 | 0.00 | 76 | 1004.7 |
| 20260505225348 | 28 | 138 | 3.2 | 3.2 | 0.00 | 0.00 | 0.00 | 73 | 1004.6 |
| 20260505224843 | 28 | 149 | 0.0 | 1.6 | 0.00 | 0.00 | 0.00 | 73 | 1004.6 |
| 20260505224341 | 28 | 108 | 1.6 | 1.6 | 0.00 | 0.00 | 0.00 | 73 | 1004.5 |
| 20260505223838 | 28 | 315 | 3.2 | 3.2 | 0.00 | 0.00 | 0.00 | 72 | 1004.4 |
| 20260505223335 | 28 | 105 | 0.0 | 0.0 | 0.00 | 0.00 | 0.00 | 72 | 1004.3 |
| 20260505222830 | 28 | 133 | 0.0 | 0.0 | 0.00 | 0.00 | 0.00 | 72 | 1004.3 |
| 20260505222327 | 28 | 89 | 0.0 | 1.6 | 0.00 | 0.00 | 0.00 | 73 | 1004.5 |
| 20260505221824 | 28 | 117 | 0.0 | 0.0 | 0.00 | 0.00 | 0.00 | 73 | 1004.5 |
| 20260505221321 | 28 | 115 | 0.0 | 0.0 | 0.00 | 0.00 | 0.00 | 73 | 1004.7 |
| 20260505220818 | 28 | 126 | 1.6 | 1.6 | 0.00 | 0.00 | 0.00 | 74 | 1004.7 |
| 20260505220315 | 28 | 128 | 1.6 | 1.6 | 0.00 | 0.00 | 0.00 | 75 | 1004.7 |
| 20260505215813 | 28 | 92 | 0.0 | 1.6 | 0.00 | 0.00 | 0.00 | 76 | 1004.9 |
| 20260505215310 | 28 | 107 | 1.6 | 1.6 | 0.00 | 0.00 | 0.00 | 75 | 1005.1 |
| 20260505214808 | 28 | 123 | 0.0 | 0.0 | 0.00 | 0.00 | 0.00 | 72 | 1004.9 |
| 20260505214306 | 29 | 102 | 0.0 | 0.0 | 0.00 | 0.00 | 0.00 | 70 | 1004.9 |
| 20260505213802 | 29 | 146 | 1.6 | 1.6 | 0.00 | 0.00 | 0.00 | 71 | 1005.0 |
| 20260505213300 | 29 | 150 | 1.6 | 3.2 | 0.00 | 0.00 | 0.00 | 70 | 1005.0 |
| 20260505212755 | 29 | 163 | 0.0 | 1.6 | 0.00 | 0.00 | 0.00 | 70 | 1005.1 |
| 20260505212253 | 28 | 122 | 0.0 | 0.0 | 0.00 | 0.00 | 0.00 | 70 | 1005.0 |
| 20260505211749 | 28 | 117 | 0.0 | 0.0 | 0.00 | 0.00 | 0.00 | 70 | 1005.1 |
| 20260505211247 | 28 | 136 | 3.2 | 3.2 | 0.00 | 0.00 | 0.00 | 71 | 1005.2 |
| 20260505210743 | 28 | 111 | 0.0 | 0.0 | 0.00 | 0.00 | 0.00 | 71 | 1005.0 |
| 20260505210240 | 28 | 91 | 0.0 | 0.0 | 0.00 | 0.00 | 0.00 | 73 | 1005.3 |
| 20260505205738 | 28 | 130 | 0.0 | 1.6 | 0.00 | 0.00 | 0.00 | 73 | 1005.2 |
| 20260505205236 | 28 | 115 | 0.0 | 1.6 | 0.00 | 0.00 | 0.00 | 73 | 1005.3 |
| 20260505204732 | 28 | 170 | 1.6 | 1.6 | 0.00 | 0.00 | 0.00 | 72 | 1005.2 |
| 20260505204230 | 28 | 120 | 0.0 | 1.6 | 0.00 | 0.00 | 0.00 | 72 | 1005.5 |
| 20260505203727 | 28 | 129 | 1.6 | 1.6 | 0.00 | 0.00 | 0.00 | 71 | 1005.4 |
| 20260505203224 | 28 | 134 | 1.6 | 1.6 | 0.00 | 0.00 | 0.00 | 73 | 1005.7 |
| 20260505202719 | 27 | 143 | 0.0 | 0.0 | 0.00 | 0.00 | 0.00 | 73 | 1005.6 |
| 20260505202216 | 27 | 103 | 0.0 | 0.0 | 0.00 | 0.00 | 0.00 | 73 | 1005.8 |
| 20260505201712 | 27 | 195 | 3.2 | 3.2 | 0.00 | 0.00 | 0.00 | 74 | 1005.7 |
| 20260505201210 | 27 | 107 | 0.0 | 1.6 | 0.00 | 0.00 | 0.00 | 75 | 1005.9 |
| 20260505200708 | 27 | 114 | 0.0 | 0.0 | 0.00 | 0.00 | 0.00 | 73 | 1005.8 |
| 20260505200205 | 27 | 111 | 1.6 | 3.2 | 0.00 | 0.00 | 0.00 | 73 | 1006.0 |
| 20260505195701 | 27 | 135 | 1.6 | 3.2 | 0.00 | 0.00 | 0.00 | 73 | 1006.1 |
| 20260505195158 | 27 | 188 | 1.6 | 3.2 | 0.00 | 0.00 | 0.00 | 72 | 1006.1 |
| 20260505194655 | 28 | 192 | 1.6 | 1.6 | 0.00 | 0.00 | 0.00 | 73 | 1006.1 |
| 20260505194151 | 28 | 161 | 0.0 | 1.6 | 0.00 | 0.00 | 0.00 | 72 | 1005.9 |
| 20260505193648 | 27 | 157 | 0.0 | 0.0 | 0.00 | 0.00 | 0.00 | 74 | 1006.1 |
| 20260505193145 | 27 | 88 | 1.6 | 1.6 | 0.00 | 0.00 | 0.00 | 74 | 1005.9 |
| 20260505192644 | 27 | 148 | 0.0 | 0.0 | 0.00 | 0.00 | 0.00 | 73 | 1006.1 |
| 20260505192141 | 27 | 120 | 0.0 | 0.0 | 0.00 | 0.00 | 0.00 | 75 | 1006.2 |
| 20260505191639 | 27 | 97 | 0.0 | 0.0 | 0.00 | 0.00 | 0.00 | 74 | 1006.3 |
| 20260505191137 | 27 | 112 | 1.6 | 1.6 | 0.00 | 0.00 | 0.00 | 75 | 1006.4 |
| 20260505190633 | 27 | 179 | 1.6 | 3.2 | 0.00 | 0.00 | 0.00 | 73 | 1006.2 |
| 20260505190127 | 27 | 114 | 1.6 | 1.6 | 0.00 | 0.00 | 0.00 | 74 | 1006.3 |
| 20260505185624 | 27 | 104 | 0.0 | 1.6 | 0.00 | 0.00 | 0.00 | 75 | 1006.5 |
| 20260505185121 | 27 | 127 | 1.6 | 1.6 | 0.00 | 0.00 | 0.00 | 75 | 1006.3 |
| 20260505184617 | 27 | 127 | 1.6 | 3.2 | 0.00 | 0.00 | 0.00 | 76 | 1006.4 |
| 20260505184114 | 26 | 116 | 1.6 | 1.6 | 0.00 | 0.00 | 0.00 | 77 | 1006.2 |
| 20260505183611 | 26 | 95 | 0.0 | 0.0 | 0.00 | 0.00 | 0.00 | 77 | 1006.4 |
| 20260505183109 | 26 | 72 | 3.2 | 4.8 | 0.00 | 0.00 | 0.00 | 78 | 1006.6 |
| 20260505182604 | 26 | 144 | 1.6 | 1.6 | 0.00 | 0.00 | 0.00 | 77 | 1006.5 |
| 20260505182102 | 26 | 115 | 0.0 | 0.0 | 0.00 | 0.00 | 0.00 | 78 | 1006.6 |
| 20260505181558 | 26 | 166 | 1.6 | 1.6 | 0.00 | 0.00 | 0.00 | 77 | 1006.7 |
| 20260505181056 | 26 | 214 | 3.2 | 4.8 | 0.00 | 0.00 | 0.00 | 78 | 1006.7 |
| 20260505180551 | 26 | 116 | 0.0 | 0.0 | 0.00 | 0.00 | 0.00 | 78 | 1006.7 |
| 20260505180049 | 26 | 108 | 0.0 | 1.6 | 0.00 | 0.00 | 0.00 | 79 | 1006.7 |
| 20260505175544 | 26 | 153 | 0.0 | 0.0 | 0.00 | 0.00 | 0.00 | 79 | 1006.7 |
| 20260505175041 | 26 | 172 | 1.6 | 3.2 | 0.00 | 0.00 | 0.00 | 78 | 1006.6 |
| 20260505174538 | 26 | 152 | 0.0 | 0.0 | 0.00 | 0.00 | 0.00 | 79 | 1006.6 |
| 20260505174034 | 26 | 180 | 1.6 | 3.2 | 0.00 | 0.00 | 0.00 | 79 | 1006.9 |
| 20260505173531 | 25 | 150 | 1.6 | 3.2 | 0.00 | 0.00 | 0.00 | 79 | 1006.9 |
| 20260505173028 | 25 | 237 | 3.2 | 3.2 | 0.00 | 0.00 | 0.00 | 80 | 1006.7 |
| 20260505172526 | 25 | 162 | 0.0 | 1.6 | 0.00 | 0.00 | 0.00 | 80 | 1006.8 |
| 20260505172021 | 25 | 97 | 3.2 | 4.8 | 0.00 | 0.00 | 0.00 | 80 | 1006.8 |
| 20260505171517 | 25 | 127 | 0.0 | 0.0 | 0.00 | 0.00 | 0.00 | 82 | 1006.9 |
| 20260505171014 | 25 | 136 | 1.6 | 1.6 | 0.00 | 0.00 | 0.00 | 82 | 1007.1 |
| 20260505170510 | 25 | 130 | 1.6 | 1.6 | 0.00 | 0.00 | 0.00 | 82 | 1007.2 |
| 20260505170007 | 25 | 69 | 0.0 | 0.0 | 0.00 | 0.00 | 0.00 | 82 | 1007.2 |
| 20260505165502 | 25 | 128 | 0.0 | 0.0 | 0.00 | 0.00 | 0.00 | 82 | 1007.1 |
| 20260505164958 | 24 | 119 | 0.0 | 1.6 | 0.00 | 0.00 | 0.00 | 83 | 1007.1 |
| 20260505164454 | 25 | 146 | 0.0 | 1.6 | 0.00 | 0.00 | 0.00 | 83 | 1007.3 |
| 20260505163952 | 24 | 119 | 0.0 | 0.0 | 0.00 | 0.00 | 0.00 | 83 | 1007.1 |
| 20260505163451 | 24 | 143 | 1.6 | 1.6 | 0.00 | 0.00 | 0.00 | 83 | 1007.3 |
| 20260505162950 | 24 | 92 | 0.0 | 0.0 | 0.00 | 0.00 | 0.00 | 83 | 1007.1 |
| 20260505162445 | 24 | 109 | 0.0 | 0.0 | 0.00 | 0.00 | 0.00 | 84 | 1007.3 |
| 20260505161942 | 24 | 107 | 0.0 | 0.0 | 0.00 | 0.00 | 0.00 | 84 | 1007.1 |
| 20260505161439 | 24 | 115 | 0.0 | 0.0 | 0.00 | 0.00 | 0.00 | 84 | 1007.2 |
| 20260505160936 | 23 | 114 | 1.6 | 1.6 | 0.00 | 0.00 | 0.00 | 83 | 1007.2 |
| 20260505160435 | 23 | 129 | 0.0 | 0.0 | 0.00 | 0.00 | 0.00 | 84 | 1006.9 |
| 20260505152911 | 22 | 106 | 0.0 | 0.0 | 0.00 | 0.00 | 0.00 | 86 | 1007.2 |
| 20260505152408 | 22 | 97 | 0.0 | 1.6 | 0.00 | 0.00 | 0.00 | 87 | 1007.2 |
| 20260505151908 | 22 | 111 | 0.0 | 1.6 | 0.00 | 0.00 | 0.00 | 86 | 1006.9 |
| 20260505151404 | 22 | 102 | 0.0 | 1.6 | 0.00 | 0.00 | 0.00 | 86 | 1007.0 |
| 20260505150901 | 22 | 142 | 1.6 | 1.6 | 0.00 | 0.00 | 0.00 | 86 | 1006.8 |
| 20260505150358 | 22 | 109 | 0.0 | 0.0 | 0.00 | 0.00 | 0.00 | 86 | 1006.9 |
| 20260505140323 | 22 | 117 | 0.0 | 0.0 | 0.00 | 0.00 | 0.00 | 86 | 1007.2 |
| 20260505130246 | 21 | 118 | 0.0 | 0.0 | 0.00 | 0.00 | 0.00 | 89 | 1007.0 |
| 20260505124737 | 21 | 127 | 0.0 | 1.6 | 0.00 | 0.00 | 0.00 | 89 | 1006.8 |
| 20260505124234 | 21 | 119 | 0.0 | 0.0 | 0.00 | 0.00 | 0.00 | 89 | 1006.8 |
| 20260505123729 | 21 | 161 | 0.0 | 0.0 | 0.00 | 0.00 | 0.00 | 89 | 1006.5 |
| 20260505123226 | 21 | 140 | 0.0 | 0.0 | 0.00 | 0.00 | 0.00 | 89 | 1006.8 |
| 20260505122723 | 21 | 130 | 1.6 | 1.6 | 0.00 | 0.00 | 0.00 | 89 | 1006.6 |
| 20260505122220 | 21 | 120 | 1.6 | 1.6 | 0.00 | 0.00 | 0.00 | 89 | 1006.7 |
| 20260505121716 | 21 | 122 | 0.0 | 0.0 | 0.00 | 0.00 | 0.00 | 89 | 1006.7 |
| 20260505121213 | 21 | 117 | 0.0 | 0.0 | 0.00 | 0.00 | 0.00 | 89 | 1006.5 |
| 20260505120710 | 21 | 111 | 0.0 | 1.6 | 0.00 | 0.00 | 0.00 | 89 | 1006.5 |
| 20260505120205 | 21 | 131 | 1.6 | 1.6 | 0.00 | 0.00 | 0.00 | 89 | 1006.3 |
| 20260505115659 | 21 | 156 | 1.6 | 1.6 | 0.00 | 0.00 | 0.00 | 89 | 1006.1 |
| 20260505115157 | 21 | 117 | 0.0 | 0.0 | 0.00 | 0.00 | 0.00 | 89 | 1006.1 |
| 20260505114654 | 21 | 139 | 1.6 | 1.6 | 0.00 | 0.00 | 0.00 | 89 | 1006.0 |
| 20260505114150 | 21 | 104 | 0.0 | 0.0 | 0.00 | 0.00 | 0.00 | 89 | 1006.1 |
| 20260505113647 | 21 | 114 | 0.0 | 0.0 | 0.00 | 0.00 | 0.00 | 89 | 1006.3 |
| 20260505113143 | 21 | 118 | 0.0 | 0.0 | 0.00 | 0.00 | 0.00 | 89 | 1006.3 |
| 20260505112640 | 21 | 132 | 0.0 | 1.6 | 0.00 | 0.00 | 0.00 | 89 | 1006.2 |
| 20260505112138 | 21 | 138 | 0.0 | 1.6 | 0.00 | 0.00 | 0.00 | 89 | 1006.3 |
| 20260505111637 | 21 | 121 | 0.0 | 0.0 | 0.00 | 0.00 | 0.00 | 89 | 1006.4 |
| 20260505111133 | 21 | 122 | 0.0 | 0.0 | 0.00 | 0.00 | 0.00 | 89 | 1006.3 |
| 20260505110630 | 21 | 143 | 1.6 | 1.6 | 0.00 | 0.00 | 0.00 | 89 | 1006.4 |